Printer-friendly version

IAU Minor Planet Center

Minor Planet Center

MPEC 2006-V58 : 2006 VG13

The following Minor Planet Electronic Circular may be linked-to from your own Web pages, but must not otherwise be redistributed electronically.


Read MPEC 2006-V57 Read MPEC 2006-V59


M.P.E.C. 2006-V58                                Issued 2006 Nov. 14, 20:44 UT

     The Minor Planet Electronic Circulars contain information on unusual
         minor planets and routine data on comets.  They are published
   on behalf of Commission 20 of the International Astronomical Union by the
          Minor Planet Center, Smithsonian Astrophysical Observatory,
                          Cambridge, MA 02138, U.S.A.

             Prepared using the Tamkin Foundation Computer Network

                              MPC@CFA.HARVARD.EDU
          URL http://cfa-www.harvard.edu/iau/mpc.html  ISSN 1523-6714

                                   2006 VG13

Observations:
     K06V13G* C2006 11 13.54381 01 14 28.21 -38 31 07.6          18.9 V EV058E12
     K06V13G  C2006 11 13.55691 01 14 21.91 -38 30 46.5          18.7 V EV058E12
     K06V13G  C2006 11 13.57009 01 14 15.61 -38 30 24.8          19.4 V EV058E12
     K06V13G  C2006 11 13.58346 01 14 09.24 -38 30 01.0          19.1 V EV058E12
     K06V13G  C2006 11 13.61937 01 13 52.31 -38 29 00.4          18.6 V EV058E12
     K06V13G  C2006 11 13.64631 01 13 39.71 -38 28 12.4          18.9 V EV058E12
     K06V13G  C2006 11 14.25279 01 09 18.65 -38 12 25.9          19.0 V EV058F84
     K06V13G  C2006 11 14.28187 01 09 04.92 -38 11 41.2                 EV058F84
     K06V13G  C2006 11 14.47569 01 07 38.09 -38 05 44.3          19.1 R EV058474
     K06V13G  C2006 11 14.47685 01 07 37.58 -38 05 42.0          18.3 R EV058474
     K06V13G  C2006 11 14.47812 01 07 36.98 -38 05 39.9          18.6 R EV058474
     K06V13G  C2006 11 14.49167 01 07 30.78 -38 05 16.2          18.4 R EV058474
     K06V13G  C2006 11 14.52568 01 07 16.71 -38 04 34.8          19.0 V EV058E12
     K06V13G  C2006 11 14.52622 01 07 16.32 -38 04 34.4          18.6 V EV058E12
     K06V13G  C2006 11 14.52676 01 07 16.03 -38 04 33.3          19.1 V EV058E12
     K06V13G  C2006 11 14.52730 01 07 15.78 -38 04 32.7          19.2 V EV058E12
     K06V13G  C2006 11 14.52784 01 07 15.52 -38 04 32.4          19.3 V EV058E12
     K06V13G  C2006 11 14.52881 01 07 15.13 -38 04 30.1          19.5 V EV058E12
     K06V13G  C2006 11 14.52934 01 07 14.84 -38 04 29.9          19.0 V EV058E12
     K06V13G  C2006 11 14.52987 01 07 14.66 -38 04 29.3          18.5 V EV058E12
     K06V13G  C2006 11 14.53051 01 07 14.34 -38 04 27.0          19.3 V EV058E12

Observer details:
474 Mount John Observatory, Lake Tekapo.  Observer A. C. Gilmore.  1.0-m f/7.7
    reflector + CCD.
E12 Siding Spring Survey.  Observers G. J. Garradd, D. M. Burton.  Measurers
    E. C. Beshore, E. J. Christensen, G. J. Garradd, A. R. Gibbs, A. D. Grauer,
    R. E. Hill, R. A. Kowalski, S. M. Larson, R. H. McNaught.  0.5-m Uppsala
    Schmidt + CCD.
F84 Hibiscus Observatory, Punaauia.  Observer N. Teamo.  Measurer J. C. Pelle.
    0.35-m f/3.88 Schmidt-Cassegrain + 1392x1040 CCD.

Orbital elements:
2006 VG13                                           PHA, Earth MOID = 0.0449 AU
Epoch 2006 Sept. 22.0 TT = JDT 2454000.5                MPC
M 137.34980              (2000.0)            P               Q
n   1.32583804     Peri.  115.53929     -0.84842365     +0.51934098
a   0.8206206      Node    95.90131     -0.51502737     -0.76535951
e   0.2995286      Incl.    5.90217     -0.12216429     -0.38014440
P   0.74           H   21.4           G   0.15           U   9
Residuals in seconds of arc
061113 E12  0.2+  0.1+    061114 F84  0.1-  0.8-    061114 E12  0.3-  0.6+
061113 E12  0.1-  0.3-    061114 474  0.6-  0.4-    061114 E12  0.3-  0.3+
061113 E12  0.2-  0.5-    061114 474  0.3-  0.1-    061114 E12  0.4-  0.3-
061113 E12  0.2-  0.8+    061114 474  0.5-  0.2-    061114 E12  0.3+  0.3+
061113 E12  0.3+  0.3-    061114 474  0.4-  0.4-    061114 E12  0.3-  0.5-
061113 E12  0.2+  0.5+    061114 E12  1.8+  1.0+    061114 E12  0.5+  0.8-
061114 F84  0.2+  0.2+    061114 E12  0.1+  0.5+    061114 E12  0.2+  0.4+

Ephemeris:
2006 VG13                a,e,i = 0.82, 0.30, 6                   q = 0.5748
Date    TT    R. A. (2000) Decl.     Delta      r     Elong.  Phase     V
2006 11 11    01 34.32   -39 28.4    0.119    1.054   119.5    54.8    18.9
2006 11 21    00 26.59   -34 27.6    0.131    1.036   108.2    65.0    19.4
2006 12 01    23 44.05   -28 00.6    0.147    1.011    95.5    76.2    19.9
2006 12 11    23 16.50   -22 01.1    0.163    0.978    82.8    87.7    20.5
2006 12 21    22 54.52   -16 56.1    0.177    0.937    69.8   100.0    21.1

Kyle E. Smalley              (C) Copyright 2006 MPC           M.P.E.C. 2006-V58

Read MPEC 2006-V57 Read MPEC 2006-V59


Our Web policy. Index to the CBAT/MPC/ICQ pages.


Valid HTML 4.01!